Location: Borz?cin
(51.1714°N, 19.6030°E)
Time: 08:20:38
(UTC+00:00)

Cosmos 2219 Rocket - Pass Details

Date: 19 May 2025
Orbit: 828 x 844 km, 71.0° (Epoch: 16 June)

Event Time Altitude Azimuth Distance (km) Brightness Sun altitude
Rises 22:20:37 0° 331° (NNW) 3,401 6.5 -18.7°
Reaches altitude 10° 22:23:07 10° 335° (NNW) 2,460 5.7 -18.8°
Maximum altitude 22:28:42 60° 55° (NE) 954 2.6 -18.8°
Enters shadow 22:32:31 20° 130° (SE) 1,825 3.6 -18.8°
